[[{"header":{"parameterUnit":"m.s-1","parameterCategory":1,"la1":30.2991,"la2":30.254,"lo1":-89.0895,"lo2":-89.0444,"dy":0.0017,"dx":0.0017,"nx":28,"ny":28,"refTime":"2024-06-27T21:00:00:Z","depth":0,"parameterNumber":2,"parameterNumberName":"U-component_of_WINDS"},"data":[0,0,0,0,0,0,0,0,0,0,0,0,0,0,0,0,0,0,0,0,0,0,0,0,0,0,0,0,0,0,0,0,0,0,0,0,0,0,0,0,0,0,0,0,0,0,0,0,0,0,0,0,0,0,0,0,0,0,3.5818,3.582,0,3.5951,3.5953,3.5954,3.5944,3.5942,3.594,3.5938,3.607,3.6075,3.6081,0,0,0,0,0,0,0,0,0,0,0,0,0,3.5548,3.5553,3.5818,3.582,3.5821,3.5951,3.5953,3.5955,3.5944,3.5942,3.5939,3.5937,3.6068,3.6075,3.6081,0,0,0,0,0,0,0,0,0,0,0,0,0,3.5671,3.5555,3.5818,3.5832,3.5835,3.5951,3.5953,3.5955,3.5945,3.5942,3.5939,3.5936,3.6066,3.6074,3.6082,3.6191,0,0,3.6106,3.611,0,0,0,0,0,0,0,0,3.5664,3.5681,3.5828,3.5831,3.5834,3.5928,3.5906,3.6034,3.5945,3.5903,3.5938,3.5934,3.6025,3.6036,3.6067,3.6197,3.6203,3.6107,3.6112,3.6116,3.6118,0,0,0,0,0,0,0,3.5656,3.5676,3.5871,3.583,3.5834,3.5829,3.5844,3.593,3.5979,3.5906,3.5906,3.5922,3.6026,3.606,3.607,3.6205,3.6107,3.6114,3.6119,3.6122,3.6425,3.6428,0,0,0,0,0,0,3.5645,3.5669,3.5866,3.5875,3.574,3.5837,3.5853,3.5901,3.5978,3.5987,3.5924,3.5921,3.6047,3.6061,3.6075,3.6204,3.6115,3.6123,3.6128,3.6422,3.6426,3.643,0,0,0,0,0,0,3.5639,3.5663,3.5861,3.5772,3.5796,3.5844,3.5899,3.5905,3.5939,3.5992,3.6,3.595,3.6046,3.6064,3.6161,3.6209,3.6127,3.6134,3.6418,3.6423,3.6428,3.6466,0,0,0,0,0,0,3.5632,3.5661,3.5705,3.5773,3.5801,3.5948,3.5902,3.591,3.5953,3.595,3.6018,3.6026,3.6045,3.6149,3.6169,3.6218,3.614,3.6414,3.6421,3.6426,3.646,3.6471,3.648,0,0,0,0,0,3.5622,3.571,3.5707,3.5731,3.5858,3.595,3.5966,3.5987,3.5957,3.6,3.6033,3.6024,3.6201,3.616,3.6182,3.6234,3.6411,3.6419,3.6426,3.6456,3.6469,3.648,0,0,0,0,0,0,3.5646,3.572,3.5717,3.583,3.5884,3.5948,3.6004,3.6001,3.6063,3.6058,3.6079,3.6094,3.6191,3.6223,3.6176,3.6341,3.6302,3.6314,3.6317,3.633,3.634,3.6329,3.6147,0,0,0,0,0,3.5665,3.5736,3.5796,3.589,3.5917,3.5956,3.5997,3.6008,3.6064,3.6086,3.6127,3.618,3.6246,3.629,3.6355,3.6465,3.6477,3.6512,3.6522,3.653,3.6539,3.6594,3.6609,3.6453,3.6453,3.6453,0,0,3.5704,3.5753,3.5797,3.5896,3.5939,3.6009,3.5975,3.6052,3.6103,3.6098,3.6191,3.6223,3.6283,3.6386,3.6433,3.6415,3.6585,3.6539,3.6545,3.655,3.6603,3.6618,3.6631,3.6458,3.6457,3.6457,0,0,3.581,3.5857,3.5938,3.5981,3.6046,3.6071,3.609,3.6155,3.6175,3.627,3.6266,3.6326,3.6443,3.6484,3.6521,3.6639,3.6631,3.6659,3.6711,3.6764,3.6776,3.6787,3.6825,3.6839,3.6669,3.6669,3.6669,0,3.585,3.5958,3.5979,3.6056,3.6098,3.6096,3.6176,3.6217,3.63,3.6327,3.6306,3.6449,3.649,3.66,3.6628,3.666,3.6679,3.6651,3.6773,3.6784,3.6795,3.6831,3.6846,3.6672,3.6671,3.6671,3.6671,0,3.6001,3.6075,3.6133,3.6212,3.6261,3.6339,3.6369,3.6416,3.6421,3.6447,3.6541,3.659,3.6662,3.669,3.6697,3.68,3.6786,3.6769,3.6729,3.6812,3.6846,3.686,3.6676,3.6675,3.6674,3.6673,0,0,3.6127,3.6216,3.6236,3.627,3.6341,3.6397,3.6473,3.6545,3.6582,3.6638,3.67,3.6796,3.678,3.6821,3.6833,3.688,3.6965,3.6857,3.6859,3.6872,3.7076,3.7085,3.7101,3.6961,3.6964,3.6966,3.7069,0,3.6237,3.6373,3.6393,3.6512,3.6578,3.6576,3.6642,3.669,3.6716,3.6773,3.6801,3.6867,3.6843,3.6867,3.6915,3.6945,3.7005,3.6938,3.7015,3.7017,3.6996,3.712,3.7132,3.7227,3.7083,3.7086,3.7087,0,3.6384,3.6444,3.6569,3.6627,3.6655,3.6714,3.6779,3.6836,3.6889,3.6904,3.6948,3.6953,3.7028,3.6987,3.7088,3.7041,3.7074,3.7093,3.7097,3.7102,3.7055,3.7125,3.7258,3.7271,3.7109,3.7108,3.7106,0,3.6458,3.657,3.6658,3.6688,3.6759,3.6799,3.683,3.6881,3.6921,3.6977,3.7002,3.7067,3.7101,3.7149,3.7169,3.7138,3.7267,3.7229,3.7278,3.7277,3.7304,3.7301,3.744,3.733,3.733,3.733,3.7329,0,3.6577,3.6652,3.6691,3.6745,3.6829,3.685,3.6931,3.696,3.7005,3.7062,3.7065,3.7118,3.7143,3.7199,3.7215,3.7293,3.731,3.7321,3.7324,3.7319,3.7317,3.7339,3.7331,3.7334,3.7333,3.7332,3.7331,0,3.6672,3.6702,3.6797,3.6856,3.6872,3.693,3.6979,3.7029,3.7054,3.7126,3.7144,3.7181,3.7247,3.7272,3.7353,3.7363,3.7452,3.7452,3.7434,3.7434,3.748,3.7474,3.7635,3.7656,3.7536,3.7537,3.7538,0,3.6745,3.6803,3.6867,3.6906,3.6938,3.7001,3.7041,3.7063,3.7105,3.7168,3.721,3.7276,3.7329,3.7433,3.7466,3.7526,3.7525,3.7577,3.7534,3.7525,3.752,3.7515,3.7519,3.7584,3.7585,3.7586,3.7587,0,3.6869,3.688,3.6939,3.7003,3.7051,3.7102,3.7151,3.7182,3.7211,3.7257,3.7325,3.7366,3.7447,3.751,3.7572,3.7601,3.7597,3.76,3.7614,3.7608,3.7594,3.7598,3.7452,3.7596,3.7595,3.7594,3.7594,3.7594,3.6952,3.7002,3.7054,3.7118,3.7158,3.7203,3.7252,3.7282,3.7339,3.7407,3.7416,3.7487,3.7534,3.7617,3.7648,3.7702,3.7687,3.7709,3.7713,3.7717,3.7718,3.7588,3.7713,3.7713,3.7713,3.7713,3.7713,0,3.7073,3.7105,3.7165,3.7233,3.7283,3.7277,3.733,3.7371,3.7434,3.748,3.7532,3.7607,3.7668,3.7704,3.7765,3.78,3.78,3.7815,3.7811,3.7816,3.773,3.771,3.7814,3.7814,3.7814,3.7814,3.7814,3.7814,3.7141,3.7223,3.724,3.734,3.7372,3.7442,3.7472,3.7512,3.7548,3.7632,3.7683,3.7707,3.7747,3.781,3.7864,3.7873,3.7893,3.7909,3.7916,3.7834,3.7823,3.7813,3.7794,3.7914,3.7914,3.7998,3.7998,3.7999]},{"header":{"parameterUnit":"m.s-1","parameterCategory":1,"la1":30.2991,"la2":30.254,"lo1":-89.0895,"lo2":-89.0444,"dy":0.0017,"dx":0.0017,"nx":28,"ny":28,"refTime":"2024-06-27T21:00:00:Z","depth":0,"parameterNumber":3,"parameterNumberName":"V-component_of_WINDS"},"data":[0,0,0,0,0,0,0,0,0,0,0,0,0,0,0,0,0,0,0,0,0,0,0,0,0,0,0,0,0,0,0,0,0,0,0,0,0,0,0,0,0,0,0,0,0,0,0,0,0,0,0,0,0,0,0,0,0,0,4.8592,4.8593,0,4.8745,4.8746,4.8748,4.873,4.8727,4.8725,4.8722,4.8873,4.888,4.8886,0,0,0,0,0,0,0,0,0,0,0,0,0,4.8276,4.8282,4.8592,4.8594,4.8595,4.8744,4.8747,4.8749,4.873,4.8727,4.8724,4.8721,4.8871,4.8879,4.8886,0,0,0,0,0,0,0,0,0,0,0,0,0,4.8419,4.8284,4.8591,4.8604,4.8607,4.8744,4.8747,4.8749,4.8731,4.8727,4.8723,4.872,4.8869,4.8878,4.8887,4.9019,0,0,4.8916,4.892,0,0,0,0,0,0,0,0,4.8411,4.8431,4.86,4.8604,4.8607,4.8715,4.869,4.884,4.8732,4.8684,4.8722,4.8718,4.8823,4.8836,4.8873,4.9027,4.9033,4.8917,4.8923,4.8927,4.893,0,0,0,0,0,0,0,4.8401,4.8424,4.8652,4.8603,4.8607,4.86,4.8616,4.8719,4.8772,4.8688,4.8687,4.8705,4.8824,4.8864,4.8876,4.9035,4.8917,4.8925,4.8931,4.8935,4.9302,4.9305,0,0,0,0,0,0,4.8389,4.8416,4.8647,4.8657,4.8498,4.8609,4.8627,4.8684,4.8771,4.8781,4.8708,4.8704,4.8849,4.8865,4.8881,4.904,4.8927,4.8936,4.8941,4.9298,4.9302,4.9307,0,0,0,0,0,0,4.8382,4.841,4.8641,4.8536,4.8565,4.8618,4.8682,4.8689,4.8728,4.8787,4.8795,4.8739,4.8847,4.8868,4.8985,4.9045,4.894,4.8949,4.9293,4.9299,4.9305,4.9359,0,0,0,0,0,0,4.8373,4.8407,4.846,4.8538,4.8571,4.8745,4.8686,4.8694,4.8745,4.8741,4.8818,4.8827,4.8846,4.8971,4.8994,4.9056,4.8956,4.9288,4.9296,4.9303,4.9352,4.9366,4.9379,0,0,0,0,0,4.8362,4.8469,4.8463,4.8491,4.8638,4.8748,4.8767,4.8788,4.875,4.8802,4.8839,4.8825,4.9035,4.8983,4.9009,4.9075,4.9284,4.9293,4.9302,4.9346,4.9364,4.9378,0,0,0,0,0,0,4.8396,4.8479,4.8474,4.8609,4.8672,4.8745,4.8811,4.8806,4.8879,4.8872,4.8892,4.891,4.9027,4.9063,4.9004,4.9205,4.9154,4.9169,4.9178,4.9195,4.9208,4.9197,4.8964,0,0,0,0,0,4.8419,4.8504,4.8571,4.8684,4.8716,4.8758,4.8807,4.8818,4.8882,4.8908,4.8954,4.9016,4.9095,4.9147,4.9224,4.9357,4.9372,4.9415,4.9428,4.9438,4.9451,4.9521,4.954,4.9337,4.9337,4.9337,0,0,4.8468,4.8524,4.8576,4.8692,4.8742,4.8827,4.8781,4.8873,4.8935,4.8922,4.9035,4.907,4.914,4.9265,4.9323,4.9298,4.951,4.945,4.9458,4.9465,4.9532,4.9552,4.9569,4.9343,4.9342,4.9341,0,0,4.86,4.8652,4.8751,4.8802,4.8878,4.8905,4.8929,4.9002,4.9026,4.914,4.9131,4.9204,4.9342,4.9391,4.9434,4.9582,4.9571,4.9606,4.9675,4.9743,4.9759,4.9774,4.9825,4.9843,4.9619,4.9619,4.9619,0,4.8651,4.8781,4.8802,4.8895,4.8945,4.8938,4.9036,4.9084,4.918,4.9214,4.9186,4.9356,4.9403,4.9538,4.9574,4.961,4.9636,4.9598,4.9756,4.977,4.9784,4.9833,4.9852,4.9623,4.9622,4.9622,4.9621,0,4.8838,4.8928,4.8998,4.9093,4.915,4.9245,4.9279,4.9334,4.9339,4.9368,4.9482,4.9538,4.9625,4.9657,4.9663,4.9793,4.9775,4.9751,4.97,4.9807,4.9853,4.9872,4.9628,4.9627,4.9625,4.9624,0,0,4.8997,4.9102,4.9127,4.9169,4.9251,4.932,4.9412,4.9499,4.9545,4.9611,4.9688,4.9803,4.9781,4.983,4.984,4.99,5.0011,4.9868,4.987,4.9892,5.0156,5.0173,5.0195,5.0004,5.0008,5.0011,5.015,0,4.9137,4.9304,4.9325,4.9473,4.9554,4.9547,4.9627,4.9685,4.9714,4.9785,4.9816,4.9897,4.9862,4.9891,4.9951,4.9986,5.0065,4.9976,5.0074,5.0077,5.0056,5.0219,5.0238,5.0367,5.0168,5.0171,5.0173,0,4.9322,4.9395,4.9551,4.962,4.9654,4.9727,4.9806,4.9875,4.9939,4.9956,5.001,5.0012,5.0105,5.0049,5.0176,5.0116,5.0156,5.0179,5.0184,5.0194,5.0132,5.0232,5.0408,5.0427,5.0202,5.02,5.0198,0,4.9421,4.9557,4.9667,4.9703,4.9787,4.9838,4.9875,4.9935,4.9985,5.0053,5.0085,5.0163,5.0205,5.0264,5.0286,5.0244,5.0411,5.0358,5.0426,5.0425,5.0461,5.0458,5.0645,5.0489,5.0489,5.0488,5.0488,0,4.9574,4.9669,4.9713,4.9781,4.9886,4.9907,5.001,5.0044,5.0098,5.017,5.0168,5.0235,5.0261,5.0331,5.0348,5.045,5.0469,5.0483,5.0487,5.0484,5.0482,5.051,5.0502,5.0493,5.0492,5.0491,5.049,0,4.9702,4.9736,4.9855,4.9924,4.9944,5.0018,5.0076,5.014,5.0167,5.0259,5.0281,5.0324,5.0407,5.0434,5.0534,5.0545,5.0663,5.0659,5.0642,5.0643,5.0708,5.0701,5.092,5.0949,5.0774,5.0775,5.0777,0,4.9798,4.9871,4.9948,4.9997,5.0036,5.0115,5.0166,5.0188,5.0241,5.0318,5.0372,5.0454,5.0522,5.0654,5.0692,5.0767,5.0765,5.0836,5.0776,5.077,5.0764,5.0759,5.0766,5.0847,5.0849,5.085,5.0851,0,4.9963,4.9975,5.005,5.0129,5.019,5.0253,5.0314,5.0354,5.0384,5.0443,5.0528,5.0581,5.0682,5.0763,5.084,5.0875,5.0868,5.087,5.0889,5.0886,5.0873,5.088,5.0672,5.0865,5.0863,5.0862,5.0862,5.0861,5.0077,5.0141,5.0205,5.0287,5.0335,5.0391,5.0455,5.049,5.0562,5.0648,5.0656,5.0747,5.0806,5.0909,5.0948,5.1018,5.0997,5.1026,5.1033,5.1039,5.1044,5.0862,5.1032,5.1031,5.1031,5.1031,5.1031,0,5.0241,5.0281,5.0357,5.0442,5.0506,5.0495,5.0561,5.0614,5.0695,5.0752,5.0818,5.0914,5.0992,5.1036,5.1114,5.1161,5.1159,5.118,5.1177,5.1185,5.1058,5.1034,5.118,5.118,5.118,5.118,5.118,5.118,5.0334,5.0441,5.046,5.059,5.0629,5.072,5.0758,5.0809,5.0854,5.0963,5.1028,5.1057,5.1107,5.1188,5.1258,5.1269,5.1296,5.132,5.1328,5.1209,5.1194,5.1179,5.1156,5.1326,5.1326,5.1448,5.1449,5.145]}]]